Satellite: NOAA-19
Catalog number: 33591
Epoch time:      10203.67140934
Element set:     612
Inclination:      098.7880 deg
RA of node:       145.0399 deg
Eccentricity:    0.0013899
Arg of perigee:   185.3529 deg
Mean anomaly:     174.7480 deg
Mean motion:   14.11070681 rev/day
Decay rate:       3.31e-06 rev/day^2
Epoch rev:            7491
Checksum:              312

/EX
SB KEPS @ AMSAT  $ORB10203.M
Orbital Elements  10203.MISC

HR AMSAT ORBITAL ELEMENTS FOR MANNED AND MISCELLANEOUS SATELLITES
FROM WA5QGD FORT WORTH,TX July 22, 2010
Send Subscribe/unsubscribe to KEPS at http://www.amsat.org/mailman/listinfo/kep
BID: ORB10203.M
TO ALL RADIO AMATEURS BT

Satellite: HUBBLE
Catalog number: 20580
Epoch time:      10203.15521287
Element set:     607
Inclination:      028.4704 deg
RA of node:       011.5685 deg
Eccentricity:    0.0003323
Arg of perigee:   211.0255 deg
Mean anomaly:     149.0127 deg
Mean motion:   15.01000605 rev/day
Decay rate:       3.67e-06 rev/day^2
Epoch rev:           91001
Checksum:              221

Satellite: ISS
Catalog number: 25544
Epoch time:      10203.99595852
Element set:     565
Inclination:      051.6455 deg
RA of node:       047.3099 deg
Eccentricity:    0.0008320
Arg of perigee:   136.8499 deg
Mean anomaly:     013.3321 deg
Mean motion:   15.71272503 rev/day
Decay rate:      8.007e-05 rev/day^2
Epoch rev:           66910
Checksum:              296

Satellite: CO-58
Catalog number: 28895
Epoch time:      10203.21021823
Element set:     637
Inclination:      098.0106 deg
RA of node:       086.5206 deg
Eccentricity:    0.0017827
Arg of perigee:   172.1562 deg
Mean anomaly:     187.9932 deg
Mean motion:   14.59911397 rev/day
Decay rate:        6.3e-07 rev/day^2
Epoch rev:           25209
Checksum:              312

Satellite: FALCON
Catalog number: 30776
Epoch time:      10202.40894399
Element set:    0888
Inclination:      035.4329 deg
RA of node:       196.5174 deg
Eccentricity:    0.0000399
Arg of perigee:   074.7547 deg
Mean anomaly:     285.3213 deg
Mean motion:   15.03718478 rev/day
Decay rate:       3.72e-06 rev/day^2
Epoch rev:           18521
Checksum:              318

Satellite: MAST
Catalog number: 31126
Epoch time:      10203.67251296
Element set:     919
Inclination:      097.9357 deg
RA of node:       243.8460 deg
Eccentricity:    0.0095644
Arg of perigee:   115.4850 deg
Mean anomaly:     245.6263 deg
Mean motion:   14.53603337 rev/day
Decay rate:        2.8e-07 rev/day^2
Epoch rev:           17321
Checksum:              292

Satellite: CAPE1
Catalog number: 31130
Epoch time:      10202.79383944
Element set:     939
Inclination:      097.9359 deg
RA of node:       240.3522 deg
Eccentricity:    0.0104001
Arg of perigee:   126.3824 deg
Mean anomaly:     234.6971 deg
Mean motion:   14.52198371 rev/day
Decay rate:      -1.97e-06 rev/day^2
Epoch rev:           17268
Checksum:              298

Satellite: COMPASS
Catalog number: 32787
Epoch time:      10202.19984587
Element set:    0731
Inclination:      097.8929 deg
RA of node:       266.4883 deg
Eccentricity:    0.0015865
Arg of perigee:   170.5262 deg
Mean anomaly:     189.6266 deg
Mean motion:   14.81910418 rev/day
Decay rate:       -4.3e-07 rev/day^2
Epoch rev:           12053
Checksum:              327

Satellite: AAUSAT2
Catalog number: 32788
Epoch time:      10203.14480724
Element set:     722
Inclination:      097.8921 deg
RA of node:       267.5543 deg
Eccentricity:    0.0015335
Arg of perigee:   168.2345 deg
Mean anomaly:     191.9225 deg
Mean motion:   14.82058559 rev/day
Decay rate:       5.45e-06 rev/day^2
Epoch rev:           12068
Checksum:              307

Satellite: DO-64
Catalog number: 32789
Epoch time:      10202.74510147
Element set:    0743
Inclination:      097.8982 deg
RA of node:       267.6725 deg
Eccentricity:    0.0015850
Arg of perigee:   167.8401 deg
Mean anomaly:     192.3202 deg
Mean motion:   14.82216443 rev/day
Decay rate:       6.17e-06 rev/day^2
Epoch rev:           12062
Checksum:              300

Satellite: CO-66
Catalog number: 32791
Epoch time:      10203.64494972
Element set:     723
Inclination:      097.8939 deg
RA of node:       267.9233 deg
Eccentricity:    0.0016146
Arg of perigee:   164.2715 deg
Mean anomaly:     195.8974 deg
Mean motion:   14.81692416 rev/day
Decay rate:       1.23e-06 rev/day^2
Epoch rev:           12070
Checksum:              329

Satellite: RS-30
Catalog number: 32953
Epoch time:      10203.54463007
Element set:     889
Inclination:      082.5009 deg
RA of node:       007.6863 deg
Eccentricity:    0.0019380
Arg of perigee:   028.2263 deg
Mean anomaly:     331.9863 deg
Mean motion:   12.43006625 rev/day
Decay rate:        1.0e-07 rev/day^2
Epoch rev:            9813
Checksum:              278

Satellite: TACSAT-3
Catalog number: 35001
Epoch time:      10202.89049264
Element set:    0340
Inclination:      040.4564 deg
RA of node:       005.6063 deg
Eccentricity:    0.0022249
Arg of perigee:   267.5387 deg
Mean anomaly:     092.2881 deg
Mean motion:   15.42063997 rev/day
Decay rate:      3.670e-05 rev/day^2
Epoch rev:           06599
Checksum:              296

